FW2101 Weather Reports


time (UTC)temp
F
wind
direction
speed
knots
gust
knots
rain 1hr
in
rain 24hr
in
rain mn
in
humidity
%
barometer
mb
20260504233113 73 296 0.9 1.7 0.00 0.02 0.00 36 1001.7
20260504232612 73 187 0.9 2.6 0.00 0.02 0.00 35 1001.7
20260504232113 73 253 0.9 2.6 0.00 0.02 0.00 35 1001.6
20260504231611 74 281 0.9 2.6 0.00 0.02 0.00 35 1001.6
20260504231111 74 283 1.7 5.2 0.00 0.02 0.00 34 1001.5
20260504230611 74 280 2.6 5.2 0.00 0.02 0.00 33 1001.4
20260504230111 75 315 2.6 5.2 0.00 0.02 0.00 33 1001.3
20260504225612 75 293 1.7 5.2 0.00 0.02 0.00 33 1001.3
20260504225111 75 310 1.7 5.2 0.00 0.02 0.00 33 1001.2
20260504224612 75 309 2.6 7.0 0.00 0.02 0.00 33 1001.3
20260504224112 75 243 3.5 7.8 0.00 0.02 0.00 33 1001.2
20260504223611 74 280 4.3 7.8 0.00 0.02 0.00 32 1001.3
20260504223113 74 280 4.3 10.4 0.00 0.02 0.00 31 1001.3
20260504223107 74 254 5.2 13.0 0.00 0.02 0.00 32 1001.3
20260504222112 74 288 5.2 13.0 0.00 0.02 0.00 32 1001.3
20260504221611 75 309 4.3 10.4 0.00 0.02 0.00 33 1001.3
20260504221112 75 278 3.5 10.4 0.00 0.02 0.00 32 1001.3
20260504220610 75 284 4.3 10.4 0.00 0.02 0.00 33 1001.5
20260504220108 75 273 4.3 10.4 0.00 0.02 0.00 33 1001.5
20260504215608 75 247 3.5 8.7 0.00 0.02 0.00 33 1001.6
20260504215108 75 272 4.3 9.6 0.00 0.02 0.00 33 1001.6
20260504214607 75 241 5.2 11.3 0.00 0.02 0.00 34 1001.7
20260504214107 75 281 4.3 11.3 0.00 0.02 0.00 33 1001.6
20260504213607 74 321 3.5 8.7 0.00 0.02 0.00 34 1001.6
20260504213106 74 278 4.3 8.7 0.00 0.02 0.00 33 1001.7
20260504212832 74 290 5.2 11.3 0.00 0.02 0.00 34 1001.8
20260504212107 74 292 6.1 12.2 0.00 0.02 0.00 34 1001.7
20260504211607 74 344 6.1 12.2 0.00 0.02 0.00 34 1001.8
20260504211335 74 273 7.0 13.0 0.00 0.02 0.00 35 1001.8
20260504210832 74 280 6.1 13.0 0.00 0.02 0.00 34 1001.8
20260504210329 74 295 5.2 11.3 0.00 0.02 0.00 35 1001.7
20260504205603 73 325 7.0 13.9 0.00 0.02 0.00 36 1001.8
20260504205104 73 302 6.1 13.9 0.00 0.02 0.00 35 1001.8
20260504204601 73 328 5.2 12.2 0.00 0.02 0.00 36 1002.0
20260504204546 73 294 6.1 13.9 0.00 0.02 0.00 36 1002.1
20260504203602 73 301 6.1 13.9 0.00 0.02 0.00 37 1002.1
20260504203102 73 244 6.1 12.2 0.00 0.02 0.00 38 1002.2
20260504202602 73 266 5.2 12.2 0.00 0.02 0.00 39 1002.2
20260504202102 73 253 5.2 12.2 0.00 0.02 0.00 39 1002.3
20260504201601 73 308 5.2 11.3 0.00 0.02 0.00 38 1002.2
20260504201101 73 292 6.1 11.3 0.00 0.02 0.00 39 1002.3
20260504200601 73 213 6.1 14.8 0.00 0.02 0.00 39 1002.4
20260504200101 73 283 6.1 14.8 0.00 0.02 0.00 38 1002.5
20260504195559 73 312 6.1 12.2 0.00 0.02 0.00 37 1002.5
20260504195059 73 271 6.1 12.2 0.00 0.02 0.00 39 1002.6
20260504194555 73 269 7.0 14.8 0.00 0.02 0.00 39 1002.6
20260504194055 73 303 7.0 14.8 0.00 0.02 0.00 40 1002.8
20260504193555 73 278 6.1 11.3 0.00 0.02 0.00 41 1002.8
20260504193318 72 9 6.1 14.8 0.00 0.02 0.00 41 1002.9
20260504192556 72 262 8.7 18.2 0.00 0.02 0.00 40 1002.9
20260504192058 72 286 7.8 18.2 0.00 0.02 0.00 41 1002.9
20260504191557 72 328 6.1 14.8 0.00 0.02 0.00 41 1003.0
20260504191325 72 304 7.0 14.8 0.00 0.02 0.00 42 1003.0
20260504190557 72 234 6.1 14.8 0.00 0.02 0.00 43 1003.1
20260504190057 71 284 5.2 11.3 0.00 0.02 0.00 44 1003.3
20260504185554 71 300 6.1 12.2 0.00 0.02 0.00 43 1003.4
20260504185053 71 282 7.0 13.9 0.00 0.02 0.00 43 1003.3
20260504184552 71 277 7.8 13.9 0.00 0.02 0.00 44 1003.4
20260504184051 71 300 7.0 13.9 0.00 0.02 0.00 44 1003.5
20260504183815 71 270 6.1 13.9 0.00 0.02 0.00 46 1003.7
20260504183052 71 326 6.1 11.3 0.00 0.02 0.00 45 1003.7
20260504182552 70 293 6.1 13.9 0.00 0.02 0.00 45 1003.7
20260504182051 70 286 8.7 16.5 0.00 0.02 0.00 44 1003.8
20260504181552 70 302 8.7 19.1 0.00 0.02 0.00 45 1003.7
20260504181052 69 301 7.8 19.1 0.00 0.02 0.00 45 1003.7
20260504180814 70 236 7.8 16.5 0.00 0.02 0.00 45 1003.8
20260504180053 69 308 7.8 14.8 0.00 0.02 0.00 45 1003.8
20260504175552 69 281 7.8 14.8 0.00 0.02 0.00 46 1004.1
20260504175048 69 247 7.8 14.8 0.00 0.02 0.00 47 1003.9
20260504174549 69 344 9.6 14.8 0.00 0.02 0.00 46 1004.0
20260504174050 69 295 8.7 14.8 0.00 0.02 0.00 47 1004.1
20260504173550 69 265 7.8 16.5 0.00 0.02 0.00 46 1004.0
20260504173050 68 267 7.8 16.5 0.00 0.02 0.00 47 1004.0
20260504172551 68 294 7.8 19.1 0.00 0.02 0.00 47 1004.0
20260504172533 68 294 7.8 19.1 0.00 0.02 0.00 47 1004.0
20260504171550 68 300 6.1 14.8 0.00 0.02 0.00 47 1003.9
20260504171050 68 319 7.8 14.8 0.00 0.02 0.00 48 1004.1
20260504170550 68 270 7.0 14.8 0.00 0.02 0.00 48 1004.1
20260504151046 62 290 7.0 11.3 0.00 0.02 0.00 53 1005.2
20260504150546 63 315 6.1 12.2 0.00 0.02 0.00 52 1005.2
20260504150304 62 244 5.2 12.2 0.00 0.02 0.00 53 1005.2
20260504141045 61 251 5.2 10.4 0.00 0.02 0.00 52 1005.2
20260504140543 60 267 5.2 10.4 0.00 0.02 0.00 54 1005.3
20260504130803 57 262 6.1 13.0 0.00 0.02 0.00 54 1005.9
20260504110538 53 246 2.6 5.2 0.00 0.02 0.00 57 1006.0
20260504100532 53 263 3.5 7.8 0.00 0.02 0.00 54 1005.8
20260504081526 53 258 4.3 8.7 0.00 0.02 0.00 55 1006.3
20260504081026 53 238 4.3 9.6 0.00 0.02 0.00 55 1006.4
20260504080527 53 228 3.5 9.6 0.00 0.02 0.00 55 1006.4